CHINASAT 1A (ZX 1A)

Last updated on Jan. 20, 2021, 6:22 a.m. UTC

1 37804U 11047A   21019.57287978 -.00000333  00000-0  00000+0 0  9990
2 37804   0.0617 238.2396 0003078  78.6423 138.3434  1.00270999 34278
UTC
Height (km)
Latitude
Longitude
Inclination
Orbital Period
UTC large
Height (km)
Speed (km/s)
/
Latitude / Longitude
Inclination (degrees)
Orbital Period (minutes)
Azimuth
Elevation
Range (km)
Doppler Factor
iOS Compass Heading
iOS Angle

Next 30 passes for location: Hong Kong

Rise time Rise Azimuth (degrees) Set time Set Azimuth (degrees) Duration Max altitude (degrees)

No matching passes for this satellites